Home   Weather   Fort Wayne   Past weeks

Flag for USA Past Weather in Fort Wayne, Indiana, USA — Yesterday and Last 2 Weeks

Now
75 °F

Scattered clouds.


Feels Like: 78 °F
Forecast: 60 / 85 °F
Wind: 6 mph from Southeast

Location: Fort Wayne International Airport

Current Time: Jul 25, 2017 at 8:39:38 pm

Latest Report: Jul 25, 2017 at 7:54 pm


Visibility: 10 mi

Pressure: 30.18 "Hg

Humidity: 55%

Dew Point: 58 °F

Location of Fort WayneLocation

Past Weather in Fort Wayne — Graph

°F

Fort Wayne Temperature Yesterday

Maximum temperature yesterday: 76 °F (at 5:54 pm)
Minimum temperature yesterday: 61 °F (at 11:54 pm)
Average temperature yesterday: 70 °F

High & Low Weather Summary for the Past Weeks

 TemperatureHumidityPressure
High90 °F (Jul 18, 5:54 pm)94% (Jul 10, 7:54 pm)30.24 "Hg (Jul 10, 7:54 pm)
Low56 °F (Jul 25, 6:54 am)46% (Jul 25, 11:54 am)29.75 "Hg (Jul 23, 4:54 pm)
Average75 °F77%29.98 "Hg
* Reported Jul 10 6:57 pm — Jul 25 6:54 pm, Fort Wayne. Weather by CustomWeather, © 2017

Note: Actual official high and low records may vary slightly from our data, if they occured in-between our weather recording intervals... More about our weather records

Advertising

Fort Wayne Weather History for the Previous 24 Hours

Scroll right to see more
 ConditionsComfort  
Time TempWeatherWind HumidityBarometerVisibility
6:54 pm
Tue, Jul 25
77 °FScattered clouds.9 mph52%30.18 "Hg10 mi
5:54 pm77 °FPassing clouds.12 mph50%30.19 "Hg10 mi
4:54 pm78 °FPassing clouds.7 mph50%30.19 "Hg10 mi
3:54 pm78 °FPassing clouds.7 mph50%30.21 "Hg10 mi
2:54 pm76 °FPassing clouds.5 mph48%30.22 "Hg10 mi
1:54 pm75 °FPassing clouds.7 mph48%30.21 "Hg10 mi
12:54 pm74 °FPassing clouds.14 mph48%30.23 "Hg10 mi
11:54 am72 °FScattered clouds.9 mph46%30.24 "Hg10 mi
10:54 am71 °FScattered clouds.10 mph47%30.24 "Hg10 mi
9:54 am68 °FScattered clouds.7 mph63%30.23 "Hg10 mi
8:54 am66 °FPassing clouds.7 mph68%30.22 "Hg10 mi
7:54 am62 °FPassing clouds.No wind83%30.20 "Hg10 mi
6:54 am56 °FPassing clouds.No wind93%30.19 "Hg10 mi
5:54 am57 °FPassing clouds.No wind90%30.16 "Hg10 mi
4:54 am57 °FPassing clouds.No wind90%30.15 "Hg10 mi
3:54 am58 °FClear.No wind93%30.15 "Hg10 mi
2:54 am58 °FClear.No wind90%30.13 "Hg10 mi
1:54 am59 °FPassing clouds.No wind93%30.14 "Hg10 mi
12:54 am60 °FPassing clouds.No wind90%30.12 "Hg10 mi
11:54 pm
Mon, Jul 24
61 °FClear.No wind87%30.11 "Hg10 mi
10:54 pm63 °FClear.No wind81%30.09 "Hg10 mi
9:54 pm64 °FPassing clouds.6 mph78%30.07 "Hg10 mi
8:54 pm68 °FPassing clouds.9 mph68%30.06 "Hg10 mi
Weather by CustomWeather, © 2017

See weather overviewHow to use our weather pages